RH
61 60 55 44 37 31 22 13 11 11 10 10 9 8 7 7 6 6 7 7 8 10 12 13 13 12 13 16 17 14 13 15 18 22 24 26 36 54 53 50 46 56 65
61 67 70 54 42 35 26 14 12 12 12 11 10 9 9 8 7 7 7 7 9 10 12 13 12 12 13 12 13 16 18 17 19 22 26 34 51 58 52 54 63 70 76
69 76 77 68 52 39 28 16 13 13 13 12 11 10 10 9 9 8 7 7 8 10 11 12 11 11 30 15 17 15 16 20 28 32 42 65 62 60 59 63 62 70 73
41 57 71 75 57 42 30 19 14 14 14 13 12 12 11 10 10 10 9 8 9 10 11 11 11 12 19 17 14 16 19 23 34 37 66 68 63 58 61 59 70 75 76
27 31 38 56 61 46 34 18 14 16 15 14 14 13 12 12 12 11 11 10 10 11 11 11 12 13 17 16 16 18 21 30 40 45 67 70 69 66 61 62 69 72 78
24 31 44 48 53 47 36 22 13 14 16 16 15 15 14 14 12 12 12 12 12 14 13 13 13 15 19 18 19 20 24 37 45 50 60 68 76 74 66 64 62 66 80
28 29 30 45 49 44 36 24 14 14 16 17 16 16 16 15 15 13 14 14 14 15 16 16 15 17 21 20 22 22 23 36 48 55 65 71 74 69 74 71 63 67 76
30 30 30 31 32 34 44 47 32 17 18 18 18 17 17 16 16 15 14 14 16 17 18 17 16 17 21 22 24 24 25 28 46 57 74 78 70 65 76 80 69 71 74
31 33 35 35 39 41 39 37 41 50 33 23 21 19 18 18 17 17 16 15 16 17 18 19 18 18 22 22 27 27 27 28 35 46 71 82 54 64 76 73 74 70 57
32 31 30 30 29 29 29 28 32 39 47 51 28 24 21 18 18 17 18 18 18 18 27 33 20 19 20 24 27 27 27 27 29 38 45 45 44 61 64 66 68 71 69
27 26 25 25 28 32 42 43 45 43 46 51 60 43 29 24 25 31 62 19 19 20 21 32 22 20 20 23 27 29 28 28 27 30 35 37 37 41 42 53 60 67 68
24 20 21 26 30 32 34 38 42 48 55 57 61 68 61 40 39 43 44 30 23 22 35 27 30 24 22 23 27 31 30 29 29 28 31 31 38 38 45 47 48 52 67
18 16 15 18 19 22 26 31 33 38 42 43 53 61 74 73 71 53 45 48 44 41 55 56 24 25 26 24 24 28 32 30 30 29 30 30 31 33 36 45 48 52 57
15 15 15 15 15 16 16 17 14 15 21 30 37 41 43 54 75 80 81 74 54 52 54 50 43 25 32 28 27 25 29 32 32 33 32 31 32 34 34 37 43 48 53
15 15 14 14 14 16 17 18 12 9 10 10 10 11 13 17 26 34 43 66 75 82 70 56 55 56 29 32 29 26 26 29 32 33 34 35 34 36 36 38 42 58 49
16 15 14 13 14 15 17 18 15 13 11 12 15 15 15 13 10 8 7 12 35 59 80 93 77 54 45 37 36 24 26 26 29 33 33 35 36 38 39 41 44 44 55
17 17 16 15 15 16 18 20 20 18 18 17 17 18 19 19 17 15 13 10 6 10 37 72 92 95 66 42 42 41 31 27 27 29 35 35 35 36 40 42 45 44 45
17 18 19 19 20 21 23 24 22 21 21 22 21 20 20 20 19 18 16 13 11 8 5 25 56 68 85 77 58 45 47 45 27 27 30 35 37 35 37 41 45 48 47
19 23 27 28 30 33 32 28 29 29 28 27 26 23 22 21 21 20 17 14 12 10 6 5 9 35 46 63 75 62 47 46 41 36 28 28 37 39 38 39 44 49 50
25 28 31 33 34 35 39 38 37 35 34 31 29 26 25 22 20 17 16 13 11 7 5 4 5 5 21 44 65 74 58 59 41 41 34 33 30 35 41 44 45 45 50
35 39 40 42 43 43 41 39 38 36 34 31 24 19 16 14 12 9 7 6 5 4 2 2 2 4 5 15 34 49 74 100 82 50 44 38 41 34 34 39 46 48 48
45 44 44 44 43 41 40 39 37 34 27 18 13 10 8 6 6 6 6 6 6 5 4 2 2 2 2 5 9 32 42 70 96 99 84 56 43 52 44 37 45 51 54
46 49 51 49 47 42 34 32 26 19 12 9 6 5 5 5 6 6 8 10 10 10 8 6 4 2 2 2 5 9 18 40 87 92 96 77 65 54 59 58 66 57 64
50 51 52 46 35 29 24 18 12 8 6 6 7 8 10 11 11 12 13 15 14 13 14 11 7 4 3 3 3 5 10 16 30 71 100 99 99 86 73 66 78 84 73
55 54 40 32 27 21 12 8 7 8 10 10 11 12 14 15 17 20 22 24 27 30 28 28 26 20 17 7 6 5 5 8 15 29 54 98 100 88 94 92 80 97 100
59 46 35 31 28 22 13 9 10 10 12 9 10 15 18 18 21 25 25 18 14 15 25 35 33 32 30 27 23 14 14 9 8 12 20 47 80 96 100 95 85 85 99
Wind_Speed
1 2 4 5 7 10 12 12 13 16 18 20 22 22 21 20 17 14 12 12 12 11 10 10 10 9 10 10 9 10 10 11 12 12 11 11 8 8 9 12 11 8 6
2 2 2 3 6 9 10 11 11 13 16 18 20 22 21 20 19 17 16 14 12 10 10 10 10 10 9 9 9 10 11 11 12 12 10 9 8 5 12 8 6 7 7
3 4 1 3 5 7 9 10 10 11 13 15 17 19 20 20 19 18 17 15 14 13 11 10 10 9 9 9 9 10 10 11 11 10 9 10 4 8 8 8 8 5 6
2 3 5 5 5 5 6 8 10 11 13 14 14 16 18 19 18 18 17 16 15 13 13 12 12 11 10 11 11 11 11 11 10 9 8 4 8 7 7 8 7 5 10
7 8 10 9 9 10 8 6 6 6 8 11 13 13 14 15 16 16 16 16 16 15 14 13 12 11 11 11 11 11 11 11 9 6 3 5 6 4 6 8 7 7 9
9 8 8 10 10 12 13 12 11 9 9 8 10 11 10 11 11 12 14 14 14 15 15 14 13 11 11 11 11 11 10 9 8 6 6 2 7 5 6 8 7 7 8
11 11 10 10 10 12 14 15 16 15 14 12 10 10 11 13 12 9 10 12 13 13 13 13 13 11 11 10 11 11 10 9 8 7 6 5 7 7 6 8 7 6 4
12 13 15 16 15 15 17 20 21 20 18 16 14 13 11 11 12 13 12 10 12 12 12 13 13 12 11 9 9 10 10 9 8 7 7 7 10 10 5 8 8 4 1
14 15 16 17 16 14 15 19 20 23 24 21 19 17 16 14 13 12 13 14 14 12 11 12 13 13 11 10 8 8 8 8 9 8 6 8 10 8 7 9 9 5 1
14 17 19 19 21 20 19 19 21 22 23 24 25 23 20 19 18 16 15 15 15 16 15 12 12 14 12 11 8 8 7 6 7 7 8 9 7 7 8 8 8 7 5
16 19 21 21 20 19 18 19 19 21 21 21 23 25 25 24 23 20 19 19 18 18 17 17 15 14 15 13 11 10 9 7 7 7 7 7 6 6 7 7 8 9 8
20 20 18 16 15 15 15 15 16 18 20 20 21 22 25 26 26 25 24 24 23 23 21 20 19 18 17 16 16 14 12 10 8 7 7 7 7 7 7 7 7 8 9
14 15 16 16 16 17 16 16 16 16 18 19 20 24 24 25 26 28 29 28 28 28 25 25 24 21 21 20 20 19 17 15 13 11 10 8 9 9 9 9 9 9 10
14 17 19 19 20 20 22 23 24 23 22 23 22 22 22 23 27 28 28 28 32 31 30 31 31 27 25 25 25 24 22 21 18 16 14 13 12 12 11 10 10 11 11
18 20 21 20 22 22 22 23 24 21 18 18 20 22 24 27 28 28 29 30 32 32 35 34 34 35 32 30 29 29 28 26 24 23 20 18 17 16 15 13 12 12 12
20 21 22 23 24 26 25 24 22 20 21 22 23 23 25 27 27 28 29 32 34 34 35 35 37 37 37 36 35 34 33 31 31 29 26 24 22 21 19 18 16 15 12
24 25 24 23 24 25 27 27 27 27 27 28 31 32 32 32 33 34 35 35 34 36 39 38 38 39 39 38 41 40 39 36 35 35 33 30 28 26 24 21 20 18 16
27 27 26 26 27 27 27 28 29 31 34 36 37 38 39 40 41 41 42 42 39 38 38 42 44 43 41 44 44 45 44 40 39 38 39 37 34 31 28 26 24 22 20
29 28 27 26 27 27 29 31 34 37 39 40 41 42 43 43 46 48 49 47 46 42 40 41 44 49 47 45 51 46 49 47 43 45 45 43 40 37 34 30 29 27 25
28 28 28 29 30 30 31 33 36 39 42 43 43 44 46 48 51 52 52 51 48 44 42 44 45 46 51 50 50 53 61 54 51 51 52 46 47 43 40 37 34 33 30
27 27 28 30 33 35 36 37 38 39 40 42 42 43 44 46 48 46 44 43 42 42 44 41 45 49 48 52 55 56 58 53 60 56 54 54 53 50 46 43 40 37 36
27 29 32 33 36 37 38 40 41 42 42 41 41 42 42 41 42 41 42 42 42 42 40 44 45 45 51 51 55 57 62 59 51 43 55 57 58 52 51 48 44 43 40
28 30 31 31 33 33 34 38 40 41 41 41 41 41 40 41 41 41 42 42 42 43 45 46 46 48 49 48 50 55 60 61 46 57 51 61 57 60 54 56 48 47 45
28 29 29 29 30 31 34 36 37 38 38 38 37 36 35 36 37 38 40 41 43 46 47 47 46 47 50 52 48 52 55 58 58 58 43 50 55 69 65 62 60 53 50
21 23 23 26 29 31 33 34 35 36 38 39 39 40 39 37 36 37 38 40 42 44 47 49 48 49 49 52 54 51 53 56 54 63 65 47 46 64 58 63 66 59 56
22 23 25 29 32 34 35 36 37 38 37 38 40 40 39 40 39 37 38 40 43 45 49 47 46 46 46 48 49 53 52 56 58 57 61 67 65 61 51 51 60 57 63
Wind_Direction
21 22 2 341 338 350 356 3 6 3 1 2 2 5 8 7 5 3 356 352 349 347 345 343 343 345 343 332 329 325 319 321 321 321 324 320 319 325 329 323 315 311 304
298 260 335 333 326 332 344 349 0 2 1 3 2 2 3 6 6 2 357 354 351 349 345 344 346 347 342 334 332 325 321 320 317 320 323 325 326 337 339 344 334 320 313
152 190 225 287 302 314 329 340 349 357 359 1 1 0 360 2 4 2 360 356 353 346 341 342 342 342 345 333 330 325 323 320 317 326 332 334 345 339 352 350 338 337 343
265 242 238 235 244 270 310 329 336 342 349 351 354 356 357 358 358 360 357 353 350 347 341 343 341 342 340 334 335 331 327 320 325 333 337 24 345 345 357 3 12 353 344
285 276 269 256 251 252 257 266 283 311 328 333 338 342 348 352 354 353 351 346 345 343 341 340 338 337 339 337 336 333 326 319 325 328 5 344 350 1 3 356 358 345 348
342 332 298 271 260 260 266 270 268 268 277 297 313 321 328 335 343 344 342 339 338 336 335 333 332 333 338 338 336 332 326 316 318 311 303 319 338 330 339 339 343 350 357
334 339 339 322 295 279 276 278 277 273 270 271 279 296 311 318 320 323 326 326 326 327 325 323 323 325 332 335 336 335 331 321 317 311 293 300 337 324 300 336 337 344 4
329 334 332 328 324 320 309 299 292 281 274 271 269 270 278 288 302 309 308 305 307 311 316 317 316 316 321 327 331 335 336 327 314 313 298 307 327 317 293 322 324 335 3
327 327 326 325 321 319 310 305 300 296 287 276 272 270 268 267 272 280 289 294 294 294 297 304 305 304 307 311 318 326 336 334 324 315 298 304 322 311 299 325 315 317 268
320 322 322 320 318 317 314 306 300 293 291 284 277 271 268 268 266 267 266 272 277 287 290 284 289 292 290 293 296 303 313 321 324 321 314 309 326 321 303 317 321 301 266
315 315 312 306 304 302 297 300 298 297 291 288 284 277 271 269 268 266 268 264 266 269 274 281 279 278 280 279 274 275 283 291 301 306 311 308 312 320 323 306 304 299 281
312 314 315 313 314 315 312 304 300 298 295 295 291 284 279 274 273 274 272 271 266 263 262 262 267 270 269 267 266 263 265 270 273 281 289 298 295 302 306 313 311 296 280
318 324 331 331 331 331 329 323 316 313 302 294 287 291 290 287 283 279 277 276 273 271 268 263 258 257 262 262 260 260 257 259 260 263 269 278 285 287 294 297 311 312 294
332 336 334 334 333 332 331 329 324 317 309 305 302 297 294 289 288 287 285 280 277 274 270 269 267 260 253 254 256 255 253 254 253 254 256 263 268 272 280 287 297 304 305
330 333 330 325 324 322 324 328 335 337 338 330 325 318 311 304 297 291 290 286 280 278 273 270 267 264 258 252 249 251 250 250 249 249 250 253 261 266 268 270 279 289 300
315 318 317 316 318 319 317 321 325 325 322 321 327 330 329 326 320 313 303 292 284 280 275 274 271 267 263 259 255 250 247 247 249 248 247 249 252 258 263 265 266 270 285
306 306 307 303 305 308 308 311 314 313 314 316 315 313 317 320 319 318 317 310 295 281 276 274 273 270 267 263 261 256 253 248 248 250 250 247 249 251 256 260 261 264 266
296 297 296 292 293 298 302 304 307 310 311 312 314 314 314 315 316 317 316 314 308 296 281 269 269 270 270 263 264 260 256 254 251 254 253 251 249 249 251 255 257 257 260
289 289 288 287 291 296 300 304 308 311 312 312 313 312 312 313 315 316 315 312 310 304 289 279 269 267 268 267 260 258 258 253 250 252 252 250 250 249 248 249 254 253 252
288 289 290 294 297 300 305 308 311 314 315 316 316 316 316 318 318 316 314 312 309 302 292 283 274 266 264 263 260 259 252 254 253 246 249 250 251 248 248 248 247 252 250
285 289 296 300 302 304 305 304 306 311 315 318 319 318 318 318 317 314 311 308 305 299 292 284 276 272 265 262 260 258 254 254 249 249 247 246 249 250 247 246 247 246 250
291 295 298 300 301 304 308 313 317 320 322 321 319 317 315 312 309 307 304 302 301 298 294 288 285 276 271 268 263 259 259 254 251 268 244 243 244 248 249 248 247 246 245
293 298 302 307 311 316 320 320 322 323 321 319 316 313 310 308 306 305 303 302 299 297 296 293 289 284 277 268 266 265 262 259 265 264 257 242 243 244 246 247 251 249 245
293 298 305 312 316 320 322 323 323 323 320 317 314 313 311 309 307 306 305 303 301 300 299 294 287 281 278 275 265 262 262 264 259 258 255 251 248 243 243 241 238 245 248
290 301 310 317 324 326 327 328 328 327 326 324 322 319 317 316 315 313 310 308 307 305 305 299 292 284 279 275 273 265 261 260 259 256 252 253 266 260 254 251 247 241 242
296 305 317 323 326 327 328 329 329 327 323 323 323 320 318 317 317 314 312 311 310 308 312 305 294 288 282 277 273 270 266 261 259 256 253 251 253 258 254 256 258 265 250